Skip Page Navigation
NASA JPL Caltech
NASA Logo - Jet Propulsion Laboratory + View the NASA Portal
+ Center for Near-Earth Object Studies
JPL Home Earth Solar System Stars & Galaxies Technology
JPL Solar System Dynamics
BODIES ORBITS EPHEMERIDES TOOLS PHYSICAL DATA DISCOVERY FAQ SITE MAP
JPL Small-Body Database Browser
Search: [ help ]  
123571 (2000 XV36)
Classification: Main-belt Asteroid          SPK-ID: 2123571
Ephemeris | Orbit Diagram | Orbital Elements | Mission Design | Physical Parameters | Discovery Circumstances ]

[ show orbit diagram ]
Orbital Elements at Epoch 2459000.5 (2020-May-31.0) TDB
Reference: JPL 18 (heliocentric ecliptic J2000)
 Element Value Uncertainty (1-sigma)   Units 
e .1391499125480579 5.4217e-08  
a 2.548910697323539 2.2447e-08 au
q 2.194229996698159 1.4297e-07 au
i 13.29256579027415 6.189e-06 deg
node 325.9622782652129 2.6875e-05 deg
peri 350.6551000915287 3.9926e-05 deg
M 22.88467365880836 3.0622e-05 deg
tp 2458906.012886972370
(2020-Feb-26.51288697)
0.0001267 TDB
period 1486.381724165612
4.07
1.9635e-05
5.376e-08
d
yr
n .2421988875045459 3.1994e-09 deg/d
Q 2.903591397948919 2.557e-08 au
  Orbit Determination Parameters
   # obs. used (total)      840  
   data-arc span      7253 days (19.86 yr)  
   first obs. used      2000-09-25  
   last obs. used      2020-08-04  
   planetary ephem.      DE431  
   SB-pert. ephem.      SB431-N16  
   condition code      0  
   norm. resid. RMS      .46487  
   source      ORB  
   producer      Otto Matic  
   solution date      2020-Aug-25 10:20:36  

Additional Information
 Earth MOID = 1.18217 au 
 Jupiter MOID = 2.41371 au 
 T_jup = 3.390 
[ show covariance matrix ]

Ephemeris | Orbit Diagram | Orbital Elements | Mission Design | Physical Parameters | Discovery Circumstances ]

Physical Parameter Table
Parameter Symbol Value Units Sigma Reference Notes
absolute magnitude H 14.8   n/a MPO338121  
diameter diameter 3.060 km 0.730 urn:nasa:pds:neowise_diameters_albedos::2.0[mainbelt] (http://adsabs.harvard.edu/abs/2011ApJ...741...68M)  
geometric albedo albedo 0.249   0.077 urn:nasa:pds:neowise_diameters_albedos::2.0[mainbelt] (http://adsabs.harvard.edu/abs/2011ApJ...741...68M)  

123571 (2000 XV36)          Discovered 2000-Dec-05 by LINEAR at Socorro
Reference: 20060314/Numbers.arcLast Updated: 2006-03-23

Alternate Designations
 2000 XV36 = 2002 CD132 
Ephemeris | Orbit Diagram | Orbital Elements | Mission Design | Physical Parameters | Discovery Circumstances ]
ABOUT SSD CREDITS/AWARDS PRIVACY/COPYRIGHT GLOSSARY LINKS
FirstGov 2020-Oct-30 16:03 UT
(server date/time)  
NASA Home Page
Site Manager:   Ryan S. Park
Webmaster  Alan B. Chamberlin